Temperature
20 21 21 22 21 20 21 19 20 21 20 21 20 20 21 21 22 22 22 22 22 22 22 22 22 22 22 21 21 21 20 20 20 20 19 19 19 18 18 18 18 17 17 17
20 21 21 22 21 21 21 20 20 21 21 20 20 21 20 21 21 21 21 22 22 22 22 22 22 22 22 21 21 21 20 20 20 20 19 19 19 18 18 18 18 17 17 17
18 19 21 21 21 21 21 20 20 21 21 20 19 19 20 20 21 21 21 22 22 22 22 22 22 22 22 21 21 21 20 20 20 19 19 19 19 18 18 18 18 17 17 17
16 19 20 20 20 21 21 20 20 20 20 19 19 21 21 22 22 22 22 22 22 22 22 22 22 22 21 21 21 20 20 20 20 19 19 19 18 18 18 18 17 17 17 17
14 17 18 20 20 20 20 20 20 19 19 19 20 20 20 22 22 22 22 23 22 22 22 22 21 21 21 20 20 20 20 20 20 19 19 19 18 18 18 18 17 17 17 17
14 17 18 19 20 21 20 20 20 19 18 18 19 19 20 22 22 22 22 22 22 22 22 22 21 21 21 20 20 20 20 19 19 19 19 19 18 18 18 17 17 17 17 16
14 16 17 18 19 20 20 19 20 20 19 19 19 20 21 22 22 22 22 22 22 22 21 21 21 21 20 20 20 20 19 19 19 19 19 18 18 18 17 17 17 17 16 16
13 16 17 18 18 18 18 20 20 20 20 20 20 21 21 21 21 21 21 21 21 21 21 21 21 20 20 20 20 19 19 19 19 18 18 18 18 17 17 17 16 16 16 16
14 15 16 17 18 19 20 20 20 20 20 20 20 20 20 21 21 21 21 21 21 21 21 20 20 20 20 19 19 19 19 19 18 18 18 17 17 17 17 16 16 16 16 16
13 15 16 17 18 19 19 20 20 20 20 21 20 20 20 20 20 20 20 20 20 20 20 20 20 19 19 19 19 19 18 18 18 17 17 17 17 16 16 16 16 16 16 15
13 14 16 17 18 19 19 20 20 20 20 20 20 20 20 19 19 19 20 19 19 19 19 19 19 19 19 18 18 18 18 18 17 17 17 17 16 16 16 16 16 16 16 15
14 15 14 16 18 18 19 19 19 20 20 20 20 19 19 19 19 19 19 19 19 18 19 19 19 18 18 18 18 17 17 17 17 17 16 16 16 16 16 15 15 15 15 15
16 16 16 17 17 18 18 18 19 19 19 19 19 19 19 18 18 18 18 18 18 18 18 18 18 18 18 17 17 17 17 17 16 16 16 16 16 16 15 15 15 14 14 15
16 16 16 17 17 17 18 18 18 18 18 18 18 18 18 18 18 18 17 17 17 17 17 17 17 17 17 17 17 16 16 16 16 16 16 15 15 15 15 15 14 14 14 14
16 16 16 16 17 17 17 17 17 17 17 17 17 17 17 17 17 17 17 17 17 17 17 16 16 16 16 16 16 16 16 16 15 15 15 15 15 15 14 14 14 14 13 13
16 16 16 16 16 16 16 16 16 16 17 17 17 17 17 17 17 17 16 16 16 16 16 16 16 16 16 16 16 15 15 15 15 15 15 14 14 14 14 14 13 13 13 13
15 15 15 15 15 16 16 16 16 16 16 16 16 16 16 16 16 16 16 16 16 16 15 16 16 16 16 16 15 15 15 15 15 14 14 14 14 14 14 13 13 13 13 13
15 15 15 15 15 15 15 16 15 16 16 15 15 15 15 15 16 15 15 15 15 15 15 15 15 15 15 15 15 15 14 14 14 14 14 14 14 13 13 13 13 13 13 12
14 14 15 15 15 15 15 15 15 15 15 15 15 15 15 15 15 15 15 14 14 15 15 15 15 15 15 15 15 14 14 14 14 14 13 13 13 13 13 13 12 12 12 12
14 14 14 14 14 14 14 15 15 15 15 15 15 14 14 14 14 14 14 14 14 14 14 14 14 14 14 14 14 14 14 14 13 13 13 13 13 13 13 12 12 12 12 12
14 14 14 14 14 14 14 14 14 14 14 14 14 14 14 14 14 14 14 14 14 14 14 14 14 14 14 14 14 13 13 13 13 13 13 13 13 13 12 12 12 12 11 11
13 13 13 14 14 14 14 14 14 14 14 14 14 13 13 13 13 13 13 14 14 14 13 13 14 14 14 13 13 13 13 13 13 13 12 13 12 12 12 12 12 11 11 11
13 13 13 13 13 13 13 13 14 13 13 13 13 13 13 13 13 13 13 13 13 13 13 13 13 13 13 13 13 13 13 13 12 12 12 12 12 12 12 12 11 11 11 11
12 12 12 12 12 12 13 13 13 13 13 13 13 13 13 12 12 12 12 13 13 13 13 13 13 13 13 13 13 12 12 12 12 12 12 12 12 12 11 11 11 11 11 10
11 12 11 12 12 12 12 12 12 12 12 12 12 12 12 12 12 12 12 12 12 12 13 13 13 13 13 12 12 12 12 12 12 12 12 12 12 11 11 11 11 11 10 10
11 11 11 11 11 11 11 11 11 11 12 11 12 12 12 11 11 11 11 11 11 12 12 12 12 12 12 12 12 12 12 12 12 12 11 11 11 11 11 11 11 10 10 10
11 11 11 11 11 11 11 11 11 11 11 11 11 11 11 11 11 11 11 11 11 11 11 11 12 12 12 12 12 12 12 11 11 11 11 11 11 11 11 11 11 10 10 10
Wind_Speed
3 3 3 3 4 5 5 8 8 8 8 9 7 6 5 4 4 4 5 5 6 6 5 6 5 5 6 6 7 7 8 8 7 6 5 5 5 4 3 3 3 2 2 2
1 1 1 2 3 6 5 5 5 4 7 7 4 2 3 4 6 5 6 6 5 5 5 5 6 6 6 6 7 7 8 7 6 6 6 6 5 5 4 3 3 3 2 2
2 3 2 3 6 6 4 4 6 7 7 2 2 4 6 6 7 7 6 6 6 6 6 6 6 7 7 7 7 8 8 7 6 6 6 6 6 5 5 4 3 3 3 2
3 2 5 8 3 4 5 3 5 5 4 4 5 4 3 4 7 6 6 6 6 6 5 5 4 4 5 6 6 7 7 7 6 7 6 6 6 6 5 4 4 4 4 4
4 4 5 6 3 5 5 4 4 5 4 2 1 3 2 2 4 6 6 6 6 6 5 4 4 4 5 5 5 6 7 7 7 7 7 7 7 7 5 5 4 4 4 4
5 5 7 8 4 2 5 3 4 4 4 3 4 2 4 3 3 3 3 3 4 4 4 4 3 5 6 5 5 6 6 6 6 6 7 8 8 7 5 5 4 4 3 4
4 4 7 7 4 2 5 7 4 5 5 5 5 5 4 2 3 4 3 3 4 5 5 5 5 5 5 5 5 5 4 5 5 5 6 6 6 5 5 5 4 4 3 3
5 4 7 3 2 5 6 3 2 4 4 4 4 3 2 2 3 4 3 3 4 5 5 4 5 6 5 5 5 3 4 4 4 4 4 5 6 6 6 6 5 4 3 3
8 8 5 3 4 4 3 3 3 3 3 4 3 2 2 3 3 4 4 4 4 5 5 4 5 6 6 5 4 4 3 3 4 4 4 5 6 6 5 5 5 4 4 4
2 5 4 4 3 2 3 3 3 4 4 4 3 3 2 2 3 3 3 3 3 5 6 5 5 6 6 5 5 5 5 4 4 4 4 4 4 5 6 6 6 6 5 5
2 5 5 4 3 3 2 2 1 2 3 4 4 3 3 3 4 4 3 3 4 5 5 6 5 5 5 5 6 6 5 5 4 5 5 4 4 4 6 6 7 7 6 6
6 6 5 5 5 3 2 4 3 2 3 2 3 3 3 3 3 3 4 4 4 3 4 5 5 5 5 6 6 6 5 5 4 5 5 5 4 3 2 4 5 7 7 6
7 5 6 6 6 4 3 4 4 3 4 3 3 3 3 3 3 3 3 4 5 5 5 5 5 5 5 6 6 7 6 6 5 5 5 5 5 5 4 1 2 4 6 7
6 4 4 5 6 5 4 4 3 3 3 3 3 2 2 3 3 3 4 5 5 5 5 5 5 5 5 6 6 6 6 6 5 5 5 5 5 5 5 5 3 2 2 5
6 6 7 6 6 5 4 2 1 2 3 3 2 3 3 4 5 5 4 4 4 4 5 6 6 6 5 6 7 6 6 5 5 4 4 5 5 5 4 5 4 3 2 2
5 4 4 5 5 5 4 3 3 5 5 4 4 4 5 5 4 4 4 4 5 6 6 6 7 6 6 6 6 5 5 6 6 4 4 5 5 5 5 5 5 4 4 4
5 5 5 5 6 6 5 5 5 6 6 6 6 5 4 4 4 4 5 5 5 6 6 7 7 6 6 6 6 5 4 5 6 5 5 5 5 5 5 5 5 5 4 5
8 8 7 7 6 6 6 5 5 5 6 7 6 5 5 6 6 6 5 4 4 4 5 6 6 6 6 6 6 5 5 5 5 6 5 5 5 5 5 5 5 5 4 4
5 5 5 4 5 4 5 5 6 6 6 5 4 5 7 7 6 6 5 5 5 6 6 5 6 6 6 7 7 5 6 6 6 6 6 6 6 5 5 6 5 5 5 4
3 3 4 4 5 4 5 5 5 5 5 4 4 5 6 6 5 5 5 5 6 6 5 5 5 5 5 6 7 5 6 7 7 6 6 6 6 6 6 6 6 5 5 5
3 3 4 4 5 5 5 4 4 4 4 3 4 5 5 4 4 4 4 5 5 4 4 5 5 4 5 5 6 5 5 6 6 6 6 6 6 6 6 6 6 6 5 5
3 3 3 4 4 4 4 4 3 4 4 3 3 3 3 3 3 4 4 5 4 5 4 4 4 5 6 6 4 5 5 5 5 5 5 5 5 6 6 6 6 6 5 5
4 4 4 4 4 4 4 3 3 3 3 3 3 3 3 4 3 3 4 3 3 4 4 4 5 6 6 5 4 5 5 5 5 5 5 5 5 5 6 6 6 6 6 5
5 5 4 4 3 3 4 4 4 3 3 3 3 3 3 2 2 2 2 2 3 4 3 4 5 6 6 4 4 5 5 5 5 5 5 5 5 5 5 5 5 5 5 6
4 4 4 5 4 3 3 4 4 3 3 2 2 2 1 1 1 1 1 1 2 2 1 2 5 5 4 3 4 4 4 5 5 5 5 5 5 5 5 5 5 5 5 5
3 4 4 4 3 3 2 2 2 2 2 2 2 2 1 1 0 0 0 0 0 1 0 1 2 3 3 3 4 4 4 4 5 5 5 5 5 6 5 6 7 6 5 5
3 3 3 3 3 2 2 1 1 2 1 1 1 2 1 1 1 1 1 1 0 0 0 0 1 2 3 3 3 3 3 3 4 4 4 4 5 5 5 6 5 5 5 6
Wind_Direction
219 221 177 184 188 176 174 179 182 218 224 249 243 230 223 196 169 158 165 172 177 181 182 179 175 177 179 181 177 174 174 182 191 190 181 173 169 168 163 159 159 152 139 131
331 302 201 202 211 194 193 186 201 211 248 252 252 198 189 181 174 176 184 185 179 176 174 181 182 179 176 179 175 169 176 188 186 178 176 177 175 170 163 162 158 149 151 153
224 295 47 248 221 192 189 194 176 203 235 239 181 195 200 196 188 188 187 184 179 180 185 193 192 179 177 179 170 171 178 181 179 180 186 187 178 170 176 177 171 170 176 166
139 113 205 238 247 181 180 214 206 212 232 214 215 209 202 188 186 190 187 185 187 185 189 190 173 163 166 162 169 176 181 180 175 177 185 183 174 179 185 182 185 191 193 188
134 173 251 281 237 179 180 240 226 211 229 220 152 69 346 227 198 198 197 190 189 187 177 166 160 157 152 163 174 181 189 190 188 185 186 185 187 191 190 185 192 196 197 192
136 158 217 238 252 213 136 245 253 196 202 171 127 141 253 237 203 205 193 184 176 160 142 153 167 156 156 168 182 201 203 197 189 188 190 193 194 194 189 187 190 186 197 204
156 194 248 251 273 124 163 228 236 195 187 166 182 209 237 211 194 192 188 182 165 158 167 180 168 159 168 178 200 210 201 191 186 192 197 196 194 190 177 177 176 181 195 214
154 181 242 261 139 169 211 236 211 189 184 185 209 239 249 212 193 182 174 175 169 171 183 179 168 167 181 204 210 193 185 187 190 192 199 194 186 184 179 174 175 185 195 219
188 209 239 238 209 223 188 185 202 194 198 185 202 233 243 224 205 195 186 186 182 178 182 183 181 181 195 206 186 178 178 194 195 190 193 190 184 182 179 177 183 194 199 212
244 266 273 277 273 265 213 208 210 199 199 185 199 217 219 227 222 208 199 194 187 182 186 196 197 197 203 195 180 174 184 196 192 187 189 186 184 184 185 190 194 196 201 207
251 277 306 300 286 280 286 264 247 249 222 206 188 203 204 217 223 218 206 198 191 195 199 202 197 201 196 183 175 179 187 192 192 193 192 191 192 194 200 205 200 196 201 197
225 231 213 254 271 267 269 275 262 257 269 246 208 215 211 222 227 217 205 200 198 205 208 204 194 195 192 184 179 182 191 195 196 196 195 191 188 194 209 206 202 204 199 191
233 240 230 255 275 267 257 267 266 244 231 240 244 216 209 222 228 216 210 205 204 208 209 199 193 200 201 189 183 187 193 197 200 200 201 197 193 194 205 206 180 204 201 193
239 238 260 263 268 278 265 263 263 263 254 231 234 241 229 230 223 222 227 225 210 201 201 198 193 206 207 187 183 190 193 197 198 204 205 203 201 201 197 194 198 210 200 188
253 231 236 259 273 281 277 266 266 274 271 267 248 238 232 226 227 234 236 229 210 202 203 200 199 209 201 181 182 190 193 199 199 204 203 200 196 193 190 189 190 184 171 179
264 267 261 257 260 267 271 264 252 259 256 250 248 247 247 239 236 239 235 220 211 219 216 207 209 209 194 182 183 192 199 194 195 201 201 196 192 190 192 189 187 188 197 199
249 257 257 261 262 262 262 257 249 253 255 252 248 245 238 233 236 238 236 225 217 223 224 216 213 202 189 186 187 197 201 197 191 201 208 202 196 197 196 192 192 196 206 198
233 238 241 242 249 259 266 266 260 258 258 254 251 243 232 226 231 233 232 224 217 229 235 225 210 199 194 191 191 194 197 199 197 201 204 202 197 195 194 194 195 196 200 189
245 250 259 259 256 249 254 263 264 263 262 249 242 247 246 239 228 226 219 214 217 229 237 221 203 201 201 200 195 196 196 197 200 203 201 193 192 194 194 195 196 193 189 191
273 268 269 273 271 260 258 265 269 271 265 251 251 256 253 242 225 219 214 221 230 230 219 207 202 205 207 203 197 199 198 198 201 203 197 196 195 194 194 194 192 190 190 192
293 289 280 270 270 269 263 263 262 269 273 260 249 247 243 241 228 213 209 233 247 226 212 206 206 211 210 199 195 198 194 192 198 200 195 195 194 194 193 192 191 192 194 197
314 305 295 284 273 281 286 278 265 267 271 269 263 250 237 242 241 239 233 233 233 205 202 209 211 204 197 189 187 187 187 189 194 192 191 191 192 193 193 191 192 193 194 197
333 328 324 313 290 284 297 295 279 271 265 256 254 253 246 246 237 232 256 248 213 205 205 211 207 192 185 184 184 184 187 190 195 192 191 191 191 191 192 193 193 190 190 192
328 330 329 323 326 324 314 310 306 301 292 284 274 257 245 253 268 255 249 233 222 215 215 203 190 185 179 186 182 184 188 190 194 191 189 190 190 191 193 193 193 192 193 195
320 329 338 337 333 319 311 319 328 327 328 330 326 321 295 236 235 261 254 232 230 221 230 192 183 180 182 181 180 183 186 186 188 189 191 188 190 192 193 192 191 192 195 198
310 318 317 312 308 304 306 311 317 320 335 343 342 346 359 10 52 323 357 353 278 216 203 200 180 168 173 175 179 184 186 183 184 189 193 192 191 192 194 194 190 193 195 197
303 311 317 322 323 320 312 299 301 315 320 334 337 342 357 8 24 26 25 30 38 35 80 130 170 172 173 176 180 183 187 192 193 191 191 191 189 189 187 187 191 192 193 194
Height
1498 1495 1495 1495 1498 1500 1502 1508 1514 1509 1507 1497 1492 1491 1491 1491 1493 1495 1497 1499 1501 1504 1506 1508 1511 1513 1516 1518 1521 1523 1525 1527 1528 1530 1531 1532 1533 1534 1535 1535 1536 1536 1537 1537
1499 1495 1494 1495 1495 1496 1497 1500 1502 1501 1500 1489 1489 1489 1490 1491 1492 1493 1495 1497 1500 1502 1504 1506 1508 1511 1513 1516 1518 1521 1523 1524 1526 1528 1529 1530 1531 1532 1532 1533 1534 1534 1535 1535
1509 1500 1496 1504 1494 1494 1494 1493 1495 1499 1493 1487 1488 1488 1488 1489 1490 1491 1493 1495 1497 1500 1502 1504 1507 1509 1511 1514 1516 1518 1519 1521 1523 1525 1526 1527 1528 1529 1530 1531 1532 1532 1533 1534
1513 1507 1516 1500 1486 1486 1488 1489 1488 1487 1486 1485 1485 1485 1486 1487 1488 1490 1491 1494 1496 1498 1500 1503 1505 1507 1509 1511 1513 1514 1516 1518 1519 1521 1522 1524 1525 1526 1528 1529 1529 1530 1531 1532
1517 1516 1507 1493 1485 1485 1488 1489 1484 1485 1484 1484 1484 1485 1486 1486 1487 1488 1490 1491 1494 1496 1498 1501 1503 1505 1507 1509 1510 1511 1513 1514 1516 1518 1519 1520 1522 1523 1524 1526 1527 1527 1528 1529
1513 1513 1513 1493 1480 1479 1484 1492 1482 1482 1482 1483 1484 1489 1487 1485 1486 1487 1489 1490 1492 1494 1496 1498 1501 1503 1505 1506 1507 1508 1509 1511 1512 1514 1516 1517 1519 1520 1521 1523 1524 1524 1525 1526
1509 1508 1500 1483 1478 1479 1495 1491 1479 1479 1480 1482 1483 1484 1483 1483 1484 1485 1487 1489 1491 1493 1494 1496 1499 1500 1502 1503 1504 1506 1507 1508 1509 1511 1512 1514 1515 1516 1518 1519 1520 1521 1522 1523
1507 1506 1499 1478 1478 1482 1482 1477 1477 1477 1478 1480 1480 1481 1481 1481 1482 1483 1484 1486 1488 1490 1492 1494 1496 1497 1498 1500 1502 1503 1504 1505 1506 1508 1509 1511 1512 1513 1514 1515 1517 1518 1519 1520
1491 1490 1479 1476 1476 1476 1476 1475 1475 1476 1477 1478 1478 1479 1480 1480 1480 1481 1482 1484 1485 1487 1489 1491 1493 1495 1496 1497 1499 1500 1501 1502 1503 1505 1506 1507 1508 1509 1510 1511 1513 1514 1515 1516
1485 1479 1476 1475 1474 1474 1474 1474 1474 1475 1475 1476 1476 1477 1477 1478 1478 1479 1480 1481 1482 1484 1485 1487 1489 1491 1493 1495 1496 1497 1498 1499 1500 1501 1502 1503 1505 1506 1506 1507 1508 1509 1511 1512
1482 1477 1474 1473 1473 1473 1472 1472 1473 1473 1473 1474 1474 1474 1475 1475 1476 1476 1477 1479 1480 1481 1482 1483 1485 1487 1489 1490 1492 1493 1494 1495 1496 1497 1498 1499 1500 1501 1503 1504 1505 1506 1507 1508
1479 1474 1475 1472 1471 1472 1471 1471 1471 1471 1471 1471 1472 1471 1472 1472 1473 1474 1474 1475 1476 1477 1478 1480 1481 1483 1484 1486 1488 1489 1490 1491 1492 1493 1494 1495 1496 1497 1498 1500 1501 1503 1504 1505
1472 1471 1471 1470 1469 1469 1469 1468 1468 1468 1468 1468 1469 1469 1469 1469 1470 1470 1471 1472 1473 1473 1475 1476 1477 1478 1479 1481 1483 1485 1486 1487 1488 1488 1489 1490 1491 1492 1493 1495 1497 1498 1499 1501
1469 1469 1468 1467 1467 1466 1465 1465 1465 1465 1465 1465 1465 1465 1465 1466 1466 1467 1467 1468 1469 1470 1471 1472 1472 1474 1476 1477 1479 1480 1482 1483 1484 1484 1485 1486 1488 1489 1490 1491 1492 1493 1496 1497
1465 1465 1465 1464 1464 1463 1463 1462 1462 1461 1462 1462 1462 1462 1462 1461 1462 1462 1463 1464 1465 1465 1466 1467 1468 1469 1471 1472 1474 1475 1477 1478 1480 1481 1482 1483 1484 1485 1487 1487 1489 1490 1492 1494
1462 1462 1461 1461 1460 1460 1460 1459 1458 1457 1458 1457 1458 1458 1458 1458 1458 1458 1459 1460 1460 1460 1462 1462 1463 1464 1466 1467 1468 1470 1472 1473 1475 1477 1478 1480 1480 1481 1483 1484 1485 1487 1488 1490
1459 1458 1457 1457 1456 1456 1456 1455 1454 1454 1453 1453 1453 1453 1453 1453 1453 1454 1454 1455 1456 1456 1457 1458 1458 1459 1460 1462 1464 1465 1467 1468 1470 1472 1473 1475 1476 1478 1479 1480 1481 1483 1485 1486
1455 1454 1454 1454 1453 1452 1452 1451 1451 1450 1449 1448 1448 1448 1447 1447 1447 1448 1449 1450 1450 1451 1452 1453 1454 1455 1455 1457 1459 1460 1463 1464 1465 1467 1469 1471 1472 1473 1475 1476 1477 1479 1481 1482
1450 1450 1450 1450 1449 1449 1448 1447 1446 1446 1445 1444 1443 1442 1442 1441 1442 1442 1443 1444 1444 1444 1446 1448 1449 1449 1450 1452 1453 1455 1457 1458 1460 1462 1464 1465 1467 1468 1470 1472 1473 1475 1476 1478
1447 1447 1446 1446 1446 1445 1444 1443 1443 1442 1441 1440 1438 1437 1436 1436 1437 1438 1438 1438 1439 1440 1441 1443 1443 1444 1445 1447 1449 1450 1452 1453 1455 1457 1458 1460 1462 1463 1465 1467 1468 1470 1471 1473
1444 1443 1443 1442 1442 1441 1440 1439 1438 1437 1437 1436 1434 1433 1432 1432 1432 1433 1433 1433 1435 1436 1437 1438 1439 1439 1441 1443 1445 1446 1447 1448 1450 1452 1454 1456 1457 1459 1460 1462 1463 1465 1467 1469
1441 1440 1439 1439 1438 1437 1436 1435 1435 1433 1433 1432 1431 1430 1429 1429 1429 1429 1429 1430 1430 1432 1433 1434 1435 1436 1437 1439 1440 1441 1443 1444 1446 1448 1450 1451 1452 1454 1456 1457 1459 1461 1462 1464
1439 1438 1437 1435 1434 1433 1432 1432 1431 1430 1429 1428 1427 1426 1426 1426 1426 1426 1425 1426 1427 1428 1429 1430 1431 1432 1434 1435 1436 1437 1439 1440 1442 1443 1445 1447 1448 1450 1452 1453 1455 1456 1458 1460
1438 1436 1435 1433 1432 1431 1430 1429 1428 1427 1426 1425 1424 1424 1424 1423 1423 1423 1423 1423 1424 1425 1426 1427 1428 1429 1430 1431 1433 1434 1435 1437 1438 1440 1442 1443 1444 1446 1448 1449 1451 1453 1455 1457
1437 1435 1433 1431 1430 1429 1428 1427 1426 1425 1424 1423 1422 1422 1422 1421 1421 1420 1421 1421 1422 1422 1423 1424 1425 1426 1427 1428 1430 1431 1432 1434 1435 1437 1438 1439 1441 1443 1445 1446 1448 1450 1452 1454
1436 1434 1432 1431 1429 1428 1427 1426 1424 1423 1422 1421 1421 1420 1420 1420 1420 1420 1419 1419 1420 1420 1420 1422 1423 1424 1425 1426 1427 1429 1430 1431 1433 1434 1435 1437 1439 1440 1442 1444 1445 1447 1449 1451
1435 1433 1432 1430 1429 1427 1426 1425 1424 1422 1421 1420 1420 1420 1419 1419 1418 1418 1418 1418 1418 1419 1419 1419 1421 1422 1423 1424 1425 1426 1428 1429 1430 1432 1433 1434 1436 1438 1439 1441 1443 1445 1446 1448